Simultaneous Nadir Overpasses (SNOs) Predictions

Prediction of SNOs between AQUA and GOES-15 Satellite Orbit:

Table of predicted SNOs for the next 14.0 days since TLE Epoch: 1/29/2021
Index Date Time (AQUA) AQUA Lat,Lon GOES-15 Lat,Lon Distance(km) Time Diff (sec)
1 01/31/2021 09:54:44 -0.20,-124.84 0.36,-127.55 307.05 80
2 01/31/2021 22:16:08 -0.93,-130.03 -0.39,-127.58 278.82 80
3 02/02/2021 22:03:57 -0.32,-127.07 -0.38,-127.50 48.83 80
4 02/04/2021 21:51:46 0.29,-124.11 -0.38,-127.42 375.81 80
5 02/05/2021 10:13:02 0.80,-129.27 0.41,-127.34 218.32 80
6 02/07/2021 10:00:51 0.18,-126.31 0.41,-127.25 107.90 80
7 02/07/2021 22:22:14 -1.35,-131.49 -0.43,-127.28 478.80 80
8 02/09/2021 09:48:39 -0.37,-123.34 0.41,-127.16 433.71 80
9 02/09/2021 22:10:03 -0.73,-128.53 -0.44,-127.19 152.96 80
10 02/11/2021 21:57:52 -0.11,-125.57 -0.44,-127.09 172.81 80
11 02/12/2021 10:19:07 1.27,-130.72 0.46,-127.02 421.36 80
